[[{"header":{"parameterUnit":"m.s-1","parameterCategory":1,"la1":30.2991,"la2":30.254,"lo1":-89.0895,"lo2":-89.0444,"dy":0.0017,"dx":0.0017,"nx":28,"ny":28,"refTime":"2025-08-14T09:00:00:Z","depth":0,"parameterNumber":2,"parameterNumberName":"U-component_of_WINDS"},"data":[0,0,0,0,0,0,0,0,0,0,0,0,0,0,0,0,0,0,0,0,0,0,0,0,0,0,0,0,0,0,0,0,0,0,0,0,0,0,0,0,0,0,0,0,0,0,0,0,0,0,0,0,0,0,0,0,0,0,2.6646,2.6647,0,2.6713,2.6714,2.6714,2.6658,2.6655,2.6653,2.6651,2.672,2.6724,2.6728,0,0,0,0,0,0,0,0,0,0,0,0,0,2.6471,2.6474,2.6646,2.6647,2.6648,2.6713,2.6714,2.6715,2.6658,2.6655,2.6652,2.665,2.6719,2.6723,2.6728,0,0,0,0,0,0,0,0,0,0,0,0,0,2.6543,2.6476,2.6646,2.6627,2.6626,2.6713,2.6714,2.6715,2.6659,2.6655,2.6652,2.6648,2.6717,2.6723,2.6729,2.6837,0,0,2.6747,2.675,0,0,0,0,0,0,0,0,2.6539,2.655,2.6629,2.6629,2.6628,2.6673,2.6677,2.6756,2.666,2.6646,2.6651,2.6647,2.6707,2.6714,2.6734,2.684,2.6843,2.6748,2.6752,2.6754,2.6756,0,0,0,0,0,0,0,2.6534,2.6547,2.6672,2.663,2.663,2.6616,2.6622,2.6692,2.6696,2.6647,2.6643,2.6652,2.6706,2.6729,2.6736,2.6844,2.6748,2.6753,2.6757,2.6759,2.7044,2.7048,0,0,0,0,0,0,2.6531,2.6543,2.667,2.6674,2.6574,2.6622,2.6629,2.6662,2.6695,2.6697,2.6655,2.6649,2.672,2.6729,2.6738,2.6867,2.6754,2.676,2.6763,2.704,2.7045,2.7049,0,0,0,0,0,0,2.6528,2.6543,2.6668,2.6608,2.6622,2.6629,2.6666,2.6665,2.6688,2.6701,2.6701,2.6677,2.6718,2.6729,2.6813,2.6869,2.6763,2.6768,2.7035,2.7041,2.7047,2.7127,0,0,0,0,0,0,2.6523,2.6542,2.6583,2.6609,2.6626,2.6742,2.667,2.6669,2.6698,2.6691,2.6722,2.6723,2.6716,2.6804,2.6819,2.6875,2.6773,2.703,2.7038,2.7045,2.7119,2.7135,2.7148,0,0,0,0,0,2.6517,2.6603,2.6585,2.6601,2.6677,2.6745,2.6755,2.6744,2.6703,2.6744,2.6753,2.6722,2.686,2.6813,2.683,2.6888,2.7027,2.7036,2.7044,2.7113,2.7132,2.7148,0,0,0,0,0,0,2.6583,2.6606,2.6587,2.6683,2.6713,2.6735,2.6787,2.6764,2.6806,2.6798,2.6783,2.679,2.6879,2.6892,2.6839,2.6995,2.6937,2.695,2.6983,2.7002,2.7016,2.7011,2.6778,0,0,0,0,0,2.6609,2.6662,2.6679,2.6763,2.6778,2.6781,2.681,2.6799,2.6829,2.6841,2.6855,2.6886,2.6936,2.6969,2.7016,2.7121,2.7127,2.7169,2.7184,2.7195,2.7207,2.7264,2.7283,2.7078,2.7078,2.7078,0,0,2.6663,2.6682,2.6716,2.6777,2.6798,2.6854,2.6791,2.6852,2.6894,2.685,2.693,2.6942,2.6975,2.707,2.7113,2.7084,2.7265,2.7207,2.7216,2.7221,2.7275,2.7294,2.7311,2.7084,2.7083,2.7082,0,0,2.679,2.6809,2.6881,2.6904,2.6938,2.6939,2.6956,2.6982,2.6989,2.7069,2.7038,2.7087,2.7174,2.7199,2.7223,2.7361,2.7334,2.7376,2.7451,2.7507,2.7523,2.7538,2.7587,2.7605,2.7387,2.7387,2.7388,0,2.6853,2.6935,2.6922,2.6986,2.7014,2.6977,2.705,2.7073,2.712,2.7141,2.7108,2.7217,2.7236,2.7337,2.7371,2.7391,2.7411,2.7373,2.7522,2.7536,2.7549,2.7597,2.7615,2.7392,2.7392,2.7391,2.7391,0,2.7011,2.7069,2.7123,2.717,2.7204,2.7272,2.727,2.7306,2.7293,2.7298,2.738,2.7403,2.7454,2.7477,2.7465,2.7577,2.7558,2.7524,2.7465,2.7574,2.7618,2.7636,2.7399,2.7398,2.7396,2.7395,0,0,2.7181,2.722,2.724,2.7261,2.7296,2.734,2.7408,2.7457,2.7489,2.7523,2.758,2.7654,2.7624,2.7651,2.7641,2.769,2.7799,2.765,2.7651,2.7678,2.7925,2.795,2.7971,2.7782,2.7785,2.7788,2.7922,0,2.731,2.7426,2.7417,2.7527,2.7581,2.7547,2.7606,2.7634,2.764,2.7687,2.7694,2.7748,2.7703,2.7719,2.7766,2.7776,2.7848,2.7766,2.7835,2.7837,2.7828,2.7994,2.8021,2.8146,2.7939,2.7942,2.7944,0,2.7475,2.7515,2.7631,2.7658,2.768,2.7733,2.7779,2.7824,2.7855,2.7856,2.7888,2.787,2.7939,2.7878,2.7973,2.7917,2.7945,2.7954,2.7959,2.7965,2.7897,2.8005,2.8186,2.8205,2.7971,2.7969,2.7967,0,2.7588,2.7671,2.7751,2.777,2.7804,2.7842,2.7858,2.7885,2.7916,2.7957,2.7977,2.8024,2.8051,2.8088,2.8084,2.8041,2.8181,2.812,2.8185,2.8185,2.8215,2.8214,2.8404,2.8233,2.8233,2.8233,2.8232,0,2.7733,2.7805,2.7802,2.7852,2.7932,2.7921,2.8001,2.8013,2.8038,2.809,2.8063,2.8112,2.8104,2.8153,2.8151,2.823,2.8242,2.8245,2.8244,2.8248,2.8248,2.8266,2.8257,2.8238,2.8237,2.8236,2.8235,0,2.7873,2.7874,2.7959,2.7984,2.7992,2.805,2.8072,2.8119,2.8123,2.8189,2.8204,2.8211,2.8268,2.8268,2.8332,2.8331,2.8428,2.8417,2.8418,2.8415,2.848,2.8474,2.8689,2.8716,2.8528,2.853,2.8531,0,2.7965,2.802,2.8051,2.8084,2.8102,2.8155,2.8186,2.8178,2.8212,2.8252,2.8295,2.8349,2.8392,2.8485,2.8496,2.8546,2.8535,2.8607,2.8543,2.8545,2.8537,2.8534,2.854,2.862,2.8622,2.8624,2.8625,0,2.8129,2.8127,2.8173,2.8221,2.8259,2.8296,2.8329,2.8358,2.8353,2.8393,2.8451,2.8484,2.855,2.8605,2.8653,2.867,2.8648,2.8645,2.8663,2.8668,2.8666,2.8668,2.8452,2.864,2.8639,2.8638,2.8637,2.8636,2.8248,2.8296,2.8325,2.8378,2.8403,2.8435,2.8481,2.8491,2.8539,2.8592,2.8585,2.8649,2.868,2.8742,2.8764,2.8814,2.8789,2.8815,2.8821,2.8828,2.8835,2.8658,2.8823,2.8823,2.8822,2.8822,2.8822,0,2.8412,2.8429,2.8478,2.8526,2.8568,2.8542,2.8579,2.8616,2.8673,2.8703,2.8746,2.8813,2.8866,2.8882,2.8934,2.8971,2.8962,2.8985,2.8982,2.8987,2.8854,2.8834,2.8992,2.8992,2.8992,2.8992,2.8992,2.8992,2.8501,2.8581,2.8582,2.8674,2.8691,2.8754,2.8777,2.8807,2.8831,2.8907,2.8951,2.8961,2.8986,2.9039,2.9087,2.909,2.9111,2.9138,2.9137,2.9013,2.8996,2.898,2.8961,2.9142,2.9143,2.9266,2.9267,2.9268]},{"header":{"parameterUnit":"m.s-1","parameterCategory":1,"la1":30.2991,"la2":30.254,"lo1":-89.0895,"lo2":-89.0444,"dy":0.0017,"dx":0.0017,"nx":28,"ny":28,"refTime":"2025-08-14T09:00:00:Z","depth":0,"parameterNumber":3,"parameterNumberName":"V-component_of_WINDS"},"data":[0,0,0,0,0,0,0,0,0,0,0,0,0,0,0,0,0,0,0,0,0,0,0,0,0,0,0,0,0,0,0,0,0,0,0,0,0,0,0,0,0,0,0,0,0,0,0,0,0,0,0,0,0,0,0,0,0,0,-1.6984,-1.6984,0,-1.6992,-1.6992,-1.6992,-1.6973,-1.6973,-1.6972,-1.6971,-1.6978,-1.6979,-1.6979,0,0,0,0,0,0,0,0,0,0,0,0,0,-1.6953,-1.6954,-1.6984,-1.6984,-1.6985,-1.6992,-1.6992,-1.6992,-1.6973,-1.6973,-1.6972,-1.6971,-1.6978,-1.6978,-1.6979,0,0,0,0,0,0,0,0,0,0,0,0,0,-1.6964,-1.6954,-1.6984,-1.6976,-1.6975,-1.6992,-1.6992,-1.6992,-1.6973,-1.6973,-1.6972,-1.6971,-1.6977,-1.6978,-1.6979,-1.7004,0,0,-1.6983,-1.6983,0,0,0,0,0,0,0,0,-1.6963,-1.6965,-1.6977,-1.6977,-1.6976,-1.6981,-1.6983,-1.6996,-1.6974,-1.6974,-1.6971,-1.697,-1.6979,-1.698,-1.6984,-1.7004,-1.7004,-1.6983,-1.6983,-1.6984,-1.6984,0,0,0,0,0,0,0,-1.6963,-1.6965,-1.6987,-1.6977,-1.6977,-1.6972,-1.6972,-1.6985,-1.6982,-1.6974,-1.6973,-1.6974,-1.6979,-1.6983,-1.6984,-1.7004,-1.6983,-1.6984,-1.6984,-1.6985,-1.7045,-1.7046,0,0,0,0,0,0,-1.6963,-1.6964,-1.6987,-1.6987,-1.6968,-1.6973,-1.6974,-1.698,-1.6981,-1.6981,-1.6975,-1.6973,-1.6981,-1.6982,-1.6984,-1.7012,-1.6984,-1.6985,-1.6986,-1.7044,-1.7045,-1.7046,0,0,0,0,0,0,-1.6963,-1.6965,-1.6987,-1.6976,-1.6978,-1.6975,-1.6982,-1.6981,-1.6984,-1.6982,-1.6981,-1.6979,-1.6981,-1.6982,-1.6999,-1.7012,-1.6985,-1.6986,-1.7043,-1.7044,-1.7045,-1.7068,0,0,0,0,0,0,-1.6962,-1.6965,-1.6975,-1.6976,-1.6979,-1.7002,-1.6983,-1.6981,-1.6986,-1.6984,-1.6986,-1.6985,-1.698,-1.6997,-1.7,-1.7013,-1.6987,-1.7041,-1.7043,-1.7045,-1.7066,-1.707,-1.7074,0,0,0,0,0,-1.6961,-1.698,-1.6975,-1.6978,-1.699,-1.7003,-1.7004,-1.6998,-1.6987,-1.6997,-1.6995,-1.6985,-1.701,-1.6999,-1.7002,-1.7015,-1.7041,-1.7043,-1.7045,-1.7065,-1.707,-1.7074,0,0,0,0,0,0,-1.698,-1.698,-1.6975,-1.6995,-1.6999,-1.7,-1.7011,-1.7003,-1.701,-1.7008,-1.7,-1.7,-1.7018,-1.7019,-1.7006,-1.7039,-1.7024,-1.7026,-1.7038,-1.7042,-1.7046,-1.7045,-1.6988,0,0,0,0,0,-1.6987,-1.6998,-1.6997,-1.7016,-1.7018,-1.7014,-1.7019,-1.7015,-1.7018,-1.7019,-1.7019,-1.7023,-1.7031,-1.7037,-1.7045,-1.7067,-1.7067,-1.7077,-1.7081,-1.7084,-1.7086,-1.7098,-1.7102,-1.7053,-1.7053,-1.7053,0,0,-1.7001,-1.7002,-1.7009,-1.702,-1.7022,-1.7033,-1.7016,-1.7028,-1.7035,-1.7021,-1.7037,-1.7037,-1.704,-1.706,-1.7068,-1.706,-1.71,-1.7087,-1.7089,-1.709,-1.71,-1.7105,-1.7109,-1.7054,-1.7054,-1.7054,0,0,-1.7031,-1.7034,-1.7049,-1.7053,-1.7057,-1.7054,-1.7058,-1.706,-1.7059,-1.7075,-1.7065,-1.7074,-1.7089,-1.7091,-1.7095,-1.7128,-1.7118,-1.713,-1.7149,-1.716,-1.7164,-1.7168,-1.7179,-1.7183,-1.7133,-1.7133,-1.7133,0,-1.7048,-1.7064,-1.7058,-1.7071,-1.7076,-1.7064,-1.708,-1.7083,-1.7089,-1.7092,-1.7084,-1.7103,-1.7104,-1.7124,-1.7132,-1.7135,-1.7139,-1.7129,-1.7164,-1.7168,-1.7171,-1.7181,-1.7185,-1.7134,-1.7134,-1.7134,-1.7134,0,-1.7084,-1.7095,-1.7107,-1.7114,-1.712,-1.7135,-1.7131,-1.7138,-1.7132,-1.7131,-1.7147,-1.7149,-1.7156,-1.7161,-1.7156,-1.718,-1.7175,-1.7166,-1.715,-1.7177,-1.7186,-1.719,-1.7136,-1.7136,-1.7135,-1.7135,0,0,-1.7126,-1.713,-1.7134,-1.7137,-1.7142,-1.715,-1.7164,-1.7172,-1.7178,-1.7183,-1.7194,-1.7207,-1.7199,-1.7203,-1.7198,-1.7208,-1.7233,-1.7197,-1.7197,-1.7203,-1.7259,-1.7266,-1.727,-1.7228,-1.7228,-1.7229,-1.7259,0,-1.7155,-1.7179,-1.7175,-1.7198,-1.7208,-1.7198,-1.721,-1.7213,-1.7212,-1.7221,-1.722,-1.7229,-1.7217,-1.722,-1.7229,-1.7228,-1.7244,-1.7226,-1.7237,-1.7237,-1.7235,-1.7276,-1.7282,-1.731,-1.7263,-1.7263,-1.7264,0,-1.7193,-1.72,-1.7224,-1.7227,-1.7231,-1.7242,-1.7249,-1.7258,-1.7262,-1.726,-1.7265,-1.7259,-1.7272,-1.7257,-1.7275,-1.7263,-1.7267,-1.7267,-1.7268,-1.7268,-1.7251,-1.7276,-1.7319,-1.7323,-1.727,-1.7269,-1.7269,0,-1.722,-1.7236,-1.7252,-1.7255,-1.7259,-1.7267,-1.7269,-1.7272,-1.7277,-1.7284,-1.7287,-1.7295,-1.7299,-1.7305,-1.73,-1.729,-1.7319,-1.7304,-1.7318,-1.7318,-1.7323,-1.7323,-1.7367,-1.7328,-1.7328,-1.7328,-1.7328,0,-1.7253,-1.7268,-1.7265,-1.7275,-1.7291,-1.7286,-1.7303,-1.7303,-1.7306,-1.7316,-1.7308,-1.7317,-1.7311,-1.732,-1.7316,-1.7331,-1.7333,-1.7332,-1.7331,-1.7333,-1.7333,-1.7335,-1.7332,-1.7329,-1.7328,-1.7328,-1.7328,0,-1.7286,-1.7284,-1.7301,-1.7304,-1.7305,-1.7317,-1.7319,-1.7328,-1.7327,-1.734,-1.7342,-1.734,-1.735,-1.7347,-1.7357,-1.7355,-1.7374,-1.7371,-1.7373,-1.7371,-1.7385,-1.7384,-1.7432,-1.7437,-1.7395,-1.7396,-1.7396,0,-1.7307,-1.7318,-1.7322,-1.7328,-1.7331,-1.7341,-1.7347,-1.7342,-1.7348,-1.7354,-1.7363,-1.7372,-1.7379,-1.7395,-1.7394,-1.7402,-1.7399,-1.7415,-1.74,-1.7401,-1.7398,-1.7397,-1.7398,-1.7418,-1.7418,-1.7419,-1.7419,0,-1.7344,-1.7342,-1.7351,-1.736,-1.7367,-1.7373,-1.7379,-1.7384,-1.738,-1.7387,-1.7397,-1.7403,-1.7414,-1.7423,-1.743,-1.7432,-1.7425,-1.7424,-1.7427,-1.7429,-1.7429,-1.7428,-1.738,-1.7423,-1.7422,-1.7422,-1.7422,-1.7422,-1.737,-1.738,-1.7385,-1.7395,-1.7399,-1.7404,-1.7413,-1.7413,-1.7422,-1.7431,-1.7428,-1.7439,-1.7443,-1.7452,-1.7455,-1.7464,-1.7457,-1.7463,-1.7464,-1.7465,-1.7466,-1.7429,-1.7465,-1.7465,-1.7465,-1.7465,-1.7465,0,-1.7406,-1.7409,-1.7418,-1.7427,-1.7434,-1.7428,-1.7434,-1.7441,-1.7451,-1.7456,-1.7463,-1.7475,-1.7484,-1.7484,-1.7493,-1.75,-1.7496,-1.7502,-1.7501,-1.7501,-1.7472,-1.7468,-1.7504,-1.7504,-1.7504,-1.7504,-1.7504,-1.7504,-1.7426,-1.7442,-1.7441,-1.7459,-1.7461,-1.7473,-1.7477,-1.7482,-1.7486,-1.7499,-1.7507,-1.7508,-1.751,-1.7519,-1.7527,-1.7527,-1.753,-1.7536,-1.7535,-1.7507,-1.7503,-1.7499,-1.7495,-1.7537,-1.7537,-1.7563,-1.7563,-1.7563]}]]